This demonstration page uses our WeatherBlox Daily Observations layout. Learn more.

Left ArrowRight Arrow

Hourly Observations for January 12, 2019

Temp ( °F °C ) Dew Point ( °F °C ) Humidity (%) Winds ( mph kmh ) Pressure ( in mb ) Visibility ( mi km ) Precip ( " mm )
12:59 am 00:59 Partly Cloudy 35 1.7 21 -6.1 57 57 NE 6 9 30.46 1032 10 16 0.00 0.00
1:59 am 01:59 Clear 35 1.7 21 -6.1 57 57 NE 6 9 30.48 1032 10 16 0.00 0.00
2:59 am 02:59 Mostly Cloudy 35 1.7 21 -6.1 57 57 ENE 7 11 30.48 1032 10 16 0.00 0.00
3:59 am 03:59 Mostly Cloudy 35 1.7 18 -7.8 50 50 NE 8 13 30.48 1032 10 16 0.00 0.00
4:59 am 04:59 Mostly Cloudy 35 1.7 17 -8.3 48 48 NE 8 13 30.49 1032 10 16 0.00 0.00
5:59 am 05:59 Mostly Cloudy 36 2.2 17 -8.3 46 46 ENE 7 11 30.50 1033 10 16 0.00 0.00
6:59 am 06:59 Cloudy 36 2.2 18 -7.8 48 48 NE 6 9 30.51 1033 10 16 0.00 0.00
7:59 am 07:59 Cloudy 37 2.8 17 -8.3 44 44 E 5 7 30.52 1033 10 16 0.00 0.00
8:59 am 08:59 Cloudy 38 3.3 18 -7.8 44 44 ENE 5 7 30.53 1034 10 16 0.00 0.00
9:59 am 09:59 Cloudy 39 3.9 21 -6.1 48 48 NNE 6 9 30.56 1035 10 16 0.00 0.00
10:59 am 10:59 Cloudy 40 4.4 24 -4.4 53 53 VRB 7 11 30.54 1034 10 16 0.00 0.00
11:59 am 11:59 Cloudy 40 4.4 26 -3.3 58 58 NNE 7 11 30.50 1033 10 16 0.00 0.00
12:59 pm 12:59 Cloudy 41 5 26 -3.3 55 55 NE 7 11 30.50 1033 10 16 0.00 0.00
1:59 pm 13:59 Cloudy 41 5 26 -3.3 55 55 NE 6 9 30.50 1033 10 16 0.00 0.00
2:59 pm 14:59 Cloudy 41 5 26 -3.3 55 55 NE 9 15 30.48 1032 10 16 0.00 0.00
3:59 pm 15:59 Cloudy 40 4.4 24 -4.4 53 53 N 7 11 30.48 1032 10 16 0.00 0.00
4:39 pm 16:39 Cloudy with Light Rain/Snow 37 2.8 29 -1.7 73 73 N 10 17 30.48 1032 7 11 0.00 0.03
4:59 pm 16:59 Cloudy with Light Snow 35 1.7 29 -1.7 78 78 NNE 9 15 30.47 1032 5 8 0.00 0.03
5:59 pm 17:59 Cloudy 36 2.2 30 -1.1 79 79 NE 5 7 30.50 1033 10 16 0.00 0.03
6:59 pm 18:59 Cloudy 37 2.8 28 -2.2 70 70 ESE 5 7 30.51 1033 10 16 0.00 0.00
7:59 pm 19:59 Cloudy with Light Rain/Snow 36 2.2 30 -1.1 79 79 NE 9 15 30.48 1032 6 10 0.00 0.03
8:30 pm 20:30 Cloudy 36 2.2 32 0 86 86 ENE 12 19 30.48 1032 9 14 0.01 0.25
8:51 pm 20:51 Cloudy 36 2.2 33 0.6 89 89 ENE 13 20 30.45 1031 7 11 0.02 0.51
8:59 pm 20:59 Cloudy with Light Rain 36 2.2 33 0.6 89 89 ENE 12 19 30.45 1031 6 10 0.02 0.51
9:41 pm 21:41 Cloudy with Light Rain/Snow 36 2.2 33 0.6 89 89 NE 13 20 30.48 1032 6 10 0.03 0.76
9:59 pm 21:59 Cloudy with Light Rain/Snow 36 2.2 33 0.6 89 89 NE 9 15 30.46 1032 6 10 0.04 1.02
10:59 pm 22:59 Cloudy with Light Rain 37 2.8 34 1.1 89 89 ENE 8 13 30.42 1030 8 13 0.01 0.25
11:59 pm 23:59 Cloudy 38 3.3 36 2.2 93 93 ENE 10 17 30.39 1029 10 16 0.02 0.51

Powered by AerisWeather